Home > Time Zones > World Clock > Weather > Norway > Oslo > Past weeks

Flag for Norway Weather past 2 weeks in Oslo, Norway

Now
55 °F

Scattered clouds.


Feels Like: 55 °F
Forecast: 48 / 63 °F
Wind: 2 mph from Northeast

Location: Oslo-Blindern

Current Time: Sep 3, 2015 at 9:33:56 PM

Latest Report: Sep 3, 2015 at 8:00 PM


Visibility: 41 mi

Pressure: 29.89 "Hg

Humidity: 85%

Dew point: 51 °F

Location of OsloLocation

Historic Weather in Oslo — Graph

°F

Oslo temperature yesterday

Maximum temperature yesterday: 58 °F (at 5:00 PM)
Minimum temperature yesterday: 52 °F (at 8:00 AM)
Average temperature yesterday: 55 °F

Past Weeks' High & Low Weather Summary

 TemperatureHumidityPressure
High77 °F (Aug 23, 5:00 PM)98% (Aug 28, 1:00 AM)30.37 "Hg (Aug 28, 1:00 AM)
Low47 °F (Aug 29, 6:00 AM)33% (Aug 22, 4:00 PM)29.47 "Hg (Aug 27, 5:00 PM)
Average61 °F75%29.96 "Hg
* Reported Aug 19 8:00 PM — Sep 3 8:00 PM, Oslo, Weather by CustomWeather, © 2015

Note: Actual official high and low records may vary slightly from our data, if they occured in-between our weather recording intervals... More about our weather records

Advertising

Oslo weather history for previous 24 hours

 ConditionsComfort  
Time TempWeatherWind HumidityBarometerVisibility
8:00 PM
Thu, Sep 3
55 °FScattered clouds.2 mph85%29.89 "Hg40 mi
7:00 PM57 °FCool.2 mph84%29.88 "HgN/A
6:00 PM58 °FCool.1 mph83%29.88 "HgN/A
5:00 PM60 °FSprinkles. Partly sunny.2 mph73%29.88 "Hg34 mi
4:00 PM61 °FCool.2 mph68%29.88 "HgN/A
3:00 PM55 °FCool.2 mph92%29.88 "HgN/A
2:00 PM57 °FSprinkles. Low clouds.5 mph79%29.88 "Hg16 mi
1:00 PM63 °FMild.1 mph68%29.86 "HgN/A
12:00 PM60 °FCool.2 mph80%29.86 "HgN/A
11:00 AM61 °FLow clouds.3 mph82%29.86 "Hg12 mi
10:00 AM55 °FCool.3 mph91%29.85 "HgN/A
9:00 AM53 °FCool.2 mph95%29.84 "HgN/A
8:00 AM53 °FRain showers. Low clouds.2 mph95%29.83 "Hg2 mi
7:00 AM53 °FCool.5 mph93%29.81 "HgN/A
5:00 AM52 °FCool.5 mph93%29.79 "HgN/A
4:00 AM52 °FCool.5 mph94%29.79 "HgN/A
3:00 AM53 °FCool.6 mph90%29.79 "HgN/A
2:00 AM52 °FRain showers. Low clouds.6 mph94%29.78 "Hg6 mi
1:00 AM53 °FCool.7 mph92%29.77 "HgN/A
12:00 AM53 °FCool.6 mph93%29.76 "HgN/A
10:00 PM
Wed, Sep 2
55 °FCool.6 mph91%29.75 "HgN/A
9:00 PM55 °FCool.5 mph90%29.74 "HgN/A
Weather by CustomWeather, © 2015

See weather overviewHow to use our weather pages